Station 44009 (LLNR 168) - DELAWARE BAY 26 NM Southeast of Cape May, NJ Image indicating link to RSS feed of recent meteorological observations for station 44009


Conditions at 44009 as of
(12:30 pm EDT)
1630 GMT on 04/15/2024:
     

Click on the graph icon in the table below to see a time series plot of the last five days of that observation.

5-day plot - Wind Direction Wind Direction (WDIR): SE ( 130 deg true )
5-day plot - Wind Speed Wind Speed (WSPD): 3.9 kts
5-day plot - Wind Gust Wind Gust (GST): 5.8 kts
5-day plot - Atmospheric Pressure Atmospheric Pressure (PRES):29.86 in
5-day plot - Air Temperature Air Temperature (ATMP): 54.7 °F
5-day plot - Water Temperature Water Temperature (WTMP): 50.2 °F
5-day plot - Dew Point Dew Point (DEWP): 51.6 °F
5-day plot - Wind Speed at 10 Meters Wind Speed at 10 meters (WSPD10M): 3.9 kts
5-day plot - Wind Speed at 20 Meters Wind Speed at 20 meters (WSPD20M): 3.9 kts
5-day plot -  Wind Speed, Wind Gust and Atmospheric Pressure Combined plot of Wind Speed, Gust, and Air Pressure
Supplemental Measurements
Highest 1-minute Wind Speed
Time (EDT)5-day plot - 1-Minute Wind Speed WSPD 5-day plot - 1-Minute Wind Direction WDIR
12:23 pm 5.8 kts-
Previous observations
TIME
(EDT)
5-day plot - Wind Direction
WDIR
 
5-day plot - Wind Speed
WSPD
kts
5-day plot - Wind Gust
GST
kts
5-day plot - Wave Height
WVHT
ft
5-day plot - Dominant Wave Period
DPD
sec
5-day plot - Average Wave Period
APD
sec
5-day plot - Mean Wave Direction
MWD
 
5-day plot - Atmospheric Pressure
PRES
in
5-day plot - Pressure Tendency
PTDY
in
5-day plot - Air Temperature
ATMP
°F
5-day plot - Water Temperature
WTMP
°F
5-day plot - Dew Point
DEWP
°F
5-day plot - Salinity
SAL
psu
5-day plot - Visibility
VIS
nmi
5-day plot - Tide (above MLLW)
TIDE
ft
2024-04-15 12:20 pmESE 3.9 3.9 3.9 65.2SSE29.86- 54.7 50.2 51.4---
2024-04-15 12:10 pm SE 3.9 5.8 3.9-5.2SSE29.87- 54.7 50.0 51.4---
2024-04-15 12:00 pm S 5.8 7.8----29.86+0.01 54.5 50.0 51.4---
2024-04-15 11:50 am S 7.8 7.8 3.6 65.3 S29.86- 54.5 50.0 51.4---
2024-04-15 11:40 am S 7.8 7.8----29.87- 54.5 50.0 51.3---
2024-04-15 11:30 am S 7.8 9.7----29.86- 54.5 50.0 51.4---
2024-04-15 11:20 am S 7.8 7.8 3.9 65.4 S29.87- 54.3 49.8 51.4---
2024-04-15 11:10 am S 7.8 7.8 3.9-5.4 S29.87- 54.3 49.6 51.4---
2024-04-15 11:00 am S 7.8 9.7----29.87+0.03 54.3 49.6 51.4---
2024-04-15 10:50 amSSW 5.8 7.8 4.3 75.5SSE29.87- 54.7 49.6 51.4---
2024-04-15 10:40 amSSW 7.8 7.8----29.87- 54.5 49.5 51.3---
2024-04-15 10:30 am SW 7.8 7.8----29.87- 54.7 49.6 51.4---
2024-04-15 10:20 am SW 7.8 7.8 3.9 75.5 S29.87- 54.9 49.6 51.4---
2024-04-15 10:10 am SW 5.8 7.8 3.9-5.5 S29.87- 55.0 49.6 51.6---
2024-04-15 10:00 am SW 5.8 7.8----29.87+0.05 54.7 49.5 51.1---
2024-04-15 09:50 am SW 5.8 7.8 3.9 65.5SSE29.87- 54.5 49.5 50.9---
2024-04-15 09:40 am SW 5.8 7.8----29.86- 54.7 49.5 51.1---
2024-04-15 09:30 am SW 5.8 7.8----29.86- 54.7 49.5 50.9---
2024-04-15 09:20 am SW 7.8 9.7 3.9 75.4 S29.86- 54.7 49.5 50.9---
2024-04-15 09:10 am SW 7.8 9.7 3.9-5.4 S29.85- 54.7 49.5 50.9---
2024-04-15 09:00 am SW 7.8 9.7----29.85+0.04 54.5 49.5 50.9---
2024-04-15 08:50 amSSW 9.7 11.7 3.9 75.6SSE29.85- 54.5 49.5 50.7---
2024-04-15 08:40 amSSW 9.7 9.7----29.85- 54.7 49.3 50.9---
2024-04-15 08:30 amSSW 9.7 11.7----29.85- 54.7 49.3 50.7---
2024-04-15 08:20 am SW 7.8 9.7 3.9 75.6SSE29.85- 54.7 49.3 50.7---
2024-04-15 08:10 amSSW 9.7 11.7 3.9-5.6SSE29.85- 54.7 49.3 50.7---
2024-04-15 08:00 amSSW 11.7 15.5----29.84+0.03 54.5 49.3 50.7---
2024-04-15 07:50 amSSW 9.7 11.7 4.3 65.4 S29.85- 54.1 49.3 50.7---
2024-04-15 07:40 amSSW 11.7 13.6----29.84- 54.1 49.3 50.7---
2024-04-15 07:30 am S 11.7 13.6----29.84- 54.0 49.3 50.7---
2024-04-15 07:20 am S 11.7 13.6 3.9 65.5 S29.83- 53.6 49.3 50.5---
2024-04-15 07:10 am S 11.7 13.6 3.9-5.5 S29.82- 53.2 49.3 50.4---
2024-04-15 07:00 am S 9.7 11.7----29.82+0.02 53.4 49.3 50.5---
2024-04-15 06:50 am S 7.8 9.7 4.3 75.6 S29.82- 53.2 49.3 50.4---
2024-04-15 06:40 am S 7.8 9.7----29.82- 53.2 49.3 50.4---
2024-04-15 06:30 amSSW 5.8 7.8----29.83- 53.2 49.5 50.4---
2024-04-15 06:20 am SW 3.9 5.8 4.3 65.4 S29.83- 53.2 49.5 50.4---
2024-04-15 06:10 amSSW 5.8 7.8 4.3-5.4 S29.83- 53.2 49.5 50.4---
2024-04-15 06:00 amSSW 7.8 9.7----29.82+0.00 53.2 49.5 50.4---
2024-04-15 05:50 am S 7.8 9.7 4.3 75.4 S29.82- 53.2 49.3 50.4---
2024-04-15 05:40 am S 7.8 9.7----29.81- 53.1 49.5 50.2---
2024-04-15 05:30 amSSW 7.8 9.7----29.81- 52.9 49.5 50.2---
2024-04-15 05:20 amSSW 7.8 9.7 4.6 65.3 S29.81- 53.1 49.5 50.2---
2024-04-15 05:10 amSSW 5.8 7.8 4.6-5.3 S29.81- 53.4 49.5 50.4---
2024-04-15 05:00 am SW 5.8 9.7----29.82+0.00 53.6 49.5 50.4---
2024-04-15 04:50 amSSW 7.8 9.7 4.9 65.1 S29.81- 53.8 49.5 50.4---
2024-04-15 04:40 am S 9.7 11.7----29.80- 53.8 49.5 50.4---
2024-04-15 04:30 am S 9.7 11.7----29.80- 53.6 49.5 50.2---
2024-04-15 04:20 amSSW 9.7 11.7 5.2 75.4 S29.81- 53.8 49.5 50.2---
2024-04-15 04:10 am S 9.7 11.7 5.2-5.4 S29.81- 53.6 49.3 50.2---
2024-04-15 04:00 am S 9.7 11.7----29.80-0.05 53.2 49.3 50.2---
2024-04-15 03:50 am S 9.7 11.7 5.2 65.1 S29.80- 53.4 49.3 50.2---
2024-04-15 03:40 amSSW 9.7 11.7----29.80- 54.3 49.3 50.4---
2024-04-15 03:30 am SW 9.7 11.7----29.80- 55.0 49.3 50.7---
2024-04-15 03:20 am SW 7.8 11.7 4.9 65.0 S29.80- 55.0 49.3 50.5---
2024-04-15 03:10 am SW 7.8 9.7 4.9-5.0 S29.81- 54.9 49.3 50.5---
2024-04-15 03:00 am SW 5.8 7.8----29.81+0.04 54.5 49.1 50.5---
2024-04-15 02:50 amSSW 7.8 7.8 5.2 65.0 S29.82- 54.7 49.1 50.5---
2024-04-15 02:40 amSSW 7.8 9.7----29.82- 54.3 49.1 50.4---
2024-04-15 02:30 amSSW 5.8 9.7----29.82- 54.5 49.1 50.5---
2024-04-15 02:20 am S 9.7 11.7 4.9 75.0 S29.82- 54.9 49.1 50.5---
2024-04-15 02:10 amSSW 7.8 11.7 4.9-5.0 S29.83- 55.0 49.1 50.7---
2024-04-15 02:00 am S 7.8 13.6----29.83+0.03 54.9 49.1 50.7---
2024-04-15 01:50 am S 11.7 15.5 5.6 65.1 S29.82- 54.9 49.1 50.7---
2024-04-15 01:40 amSSW 9.7 13.6----29.83- 54.9 49.1 50.7---
2024-04-15 01:30 amSSW 7.8 11.7----29.83- 55.4 49.1 50.9---
2024-04-15 01:20 am SW 7.8 13.6 5.2 64.9SSW29.83- 55.9 49.3 51.1---
2024-04-15 01:10 amWSW 7.8 9.7 5.2-4.9SSW29.85- 56.5 49.1 51.3---
2024-04-15 01:00 am W 11.7 17.5----29.85+0.04 56.7 49.1 51.3---
2024-04-15 12:50 amWNW 11.7 21.4 5.9 64.9SSW29.83- 55.9 49.1 51.3---
2024-04-15 12:40 amNNW 9.7 17.5 5.9-4.9SSW29.84- 55.0 49.1 50.7---
2024-04-15 12:30 amSSW 19.4 23.3----29.80- 55.6 49.3 50.7---
2024-04-15 12:20 amSSW 21.4 25.3 6.2 64.8SSW29.78- 55.6 49.3 50.7---
2024-04-15 12:10 amSSW 21.4 25.3 6.2-4.8SSW29.78- 55.6 49.3 50.7---
2024-04-15 12:00 amSSW 21.4 25.3----29.78+0.00 55.6 49.3 50.7---
2024-04-14 11:50 pmSSW 21.4 25.3 5.9 64.8SSW29.78- 55.8 49.3 50.7---
2024-04-14 11:40 pmSSW 21.4 25.3----29.78- 55.9 49.3 50.9---
2024-04-14 11:30 pmSSW 19.4 23.3----29.78- 55.8 49.3 50.9---
2024-04-14 11:20 pmSSW 19.4 23.3 5.9 64.9SSW29.79- 55.8 49.3 50.7---
2024-04-14 11:10 pmSSW 19.4 23.3 5.9-4.9SSW29.79- 55.6 49.3 50.5---
2024-04-14 11:00 pmSSW 19.4 23.3----29.79+0.03 55.4 49.3 50.5---
2024-04-14 10:50 pmSSW 17.5 21.4 5.9 65.0 S29.79- 54.9 49.3 50.4---
2024-04-14 10:40 pmSSW 15.5 21.4----29.80- 54.5 49.3 50.4---
2024-04-14 10:30 pmSSW 15.5 17.5----29.81- 54.7 49.3 50.4---
2024-04-14 10:20 pmSSW 15.5 19.4 5.9 64.8 S29.81- 54.9- 50.4---
2024-04-14 10:10 pmSSW 15.5 19.4----29.81- 55.0 49.3 50.4---
2024-04-14 10:00 pmSSW 15.5 19.4----29.81+0.03 55.0 49.3 50.2---
2024-04-14 09:50 pmSSW 15.5 19.4 6.2 64.9SSW29.80- 54.7 49.3 50.0---
2024-04-14 09:40 pmSSW 15.5 19.4----29.80- 54.9 49.3 50.0---
2024-04-14 09:30 pmSSW 17.5 19.4----29.80- 55.0 49.3 50.0---
2024-04-14 09:20 pmSSW 17.5 21.4 6.2 64.9SSW29.79- 55.4 49.3 50.2---
2024-04-14 09:10 pmSSW 17.5 21.4 6.2-4.9SSW29.78- 55.2 49.3 50.0---
2024-04-14 09:00 pmSSW 17.5 21.4----29.78-0.02 54.9 49.3 49.8---
2024-04-14 08:50 pmSSW 19.4 23.3 6.6 64.8 S29.77- 54.7 49.3 49.8---
2024-04-14 08:40 pmSSW 19.4 25.3----29.77- 55.0 49.3 49.8---
2024-04-14 08:30 pmSSW 21.4 25.3----29.76- 55.0 49.3 49.6---
2024-04-14 08:20 pmSSW 21.4 25.3 7.2 65.1SSW29.76- 55.2 49.1 49.5---
2024-04-14 08:10 pmSSW 21.4 25.3 7.2-5.1SSW29.77- 55.6 49.1 49.3---
2024-04-14 08:00 pmSSW 21.4 25.3----29.77-0.07 55.6 49.1 48.9---
2024-04-14 07:50 pmSSW 21.4 25.3 6.2 64.7SSW29.77- 55.6 49.1 48.6---
2024-04-14 07:40 pmSSW 21.4 27.2----29.77- 55.4 49.3 48.4---
2024-04-14 07:10 pmSSW 21.4 25.3 6.2-4.7SSW29.78- 55.4 49.3 47.7---
2024-04-14 07:00 pmSSW 21.4 25.3----29.78-0.07 55.6 49.3 47.7---
2024-04-14 06:50 pmSSW 23.3 25.3 5.9 64.6SSW29.79- 55.6 49.3 47.5---
2024-04-14 06:40 pmSSW 21.4 25.3----29.80- 55.6 49.1 47.5---
2024-04-14 06:30 pmSSW 21.4 27.2----29.80- 55.6 49.1 47.5---
2024-04-14 06:20 pmSSW 21.4 27.2 5.9 54.6SSW29.80- 55.6 49.1 47.5---
2024-04-14 06:10 pmSSW 23.3 27.2 5.9-4.6SSW29.80- 55.8 49.1 47.3---
2024-04-14 06:00 pm S 23.3 27.2----29.80-0.10 55.6 49.1 47.1---
2024-04-14 05:50 pm S 23.3 29.1 5.9 54.5SSW29.80- 55.8 49.1 47.1---
2024-04-14 05:40 pm S 23.3 27.2----29.82- 55.8 49.3 46.8---
2024-04-14 05:30 pmSSW 23.3 29.1----29.82- 55.9 49.3 46.6---
2024-04-14 05:20 pmSSW 21.4 29.1 5.2 54.3SSW29.83- 55.9 49.5 46.4---
2024-04-14 05:10 pm S 21.4 27.2 5.2-4.3SSW29.83- 55.6 49.5 46.6---
2024-04-14 05:00 pm S 21.4 27.2----29.83-0.12 55.6 49.5 46.9---
2024-04-14 04:50 pm S 23.3 27.2 5.2 54.3SSW29.84- 55.4 49.5 47.1---
2024-04-14 04:40 pmSSW 23.3 29.1----29.84- 55.2 49.6 47.1---
2024-04-14 04:30 pm S 23.3 29.1----29.85- 55.0 49.6 47.1---
2024-04-14 04:20 pm S 23.3 29.1 4.6 54.2SSW29.85- 54.9 49.6 47.3---
2024-04-14 04:10 pm S 23.3 29.1----29.85- 54.7 49.6 47.1---
2024-04-14 04:00 pm S 23.3 27.2----29.85-0.13 54.7 49.6 47.3---
2024-04-14 03:50 pm S 21.4 25.3 4.3 44.2SSW29.86- 54.5 49.6 47.5---
2024-04-14 03:40 pm S 21.4 25.3----29.87- 54.3 49.6 47.3---
2024-04-14 03:30 pm S 19.4 25.3----29.88- 54.3 49.6 47.5---
2024-04-14 03:20 pm S 21.4 25.3 4.3 44.1SSW29.89- 54.3 49.6 47.5---
2024-04-14 03:10 pm S 21.4 25.3 4.3-4.1SSW29.90- 54.5 49.6 47.3---
2024-04-14 03:00 pm S 21.4 25.3----29.90-0.11 54.5 49.6 47.1---
2024-04-14 02:50 pm S 21.4 25.3 3.9 44.0SSW29.91- 54.5 49.6 47.1---
2024-04-14 02:40 pm S 21.4 25.3----29.92- 54.5 49.5 47.1---
2024-04-14 02:30 pm S 19.4 23.3----29.93- 54.5 49.5 47.3---
2024-04-14 02:20 pmSSW 19.4 23.3 3.9 114.2 E29.94- 54.5- 47.1---
2024-04-14 02:10 pmSSW 19.4 23.3 3.9-4.2 E29.95- 54.5 49.5 47.1---
2024-04-14 02:00 pmSSW 19.4 23.3----29.96-0.07 54.5 49.5 46.9---
2024-04-14 01:50 pmSSW 19.4 21.4 3.6 104.1 E29.96- 54.5 49.5 46.9---
2024-04-14 01:40 pmSSW 17.5 21.4----29.97- 54.5 49.5 47.1---
2024-04-14 01:30 pmSSW 17.5 23.3----29.98- 54.5 49.5 47.1---
2024-04-14 01:20 pmSSW 17.5 21.4 3.6 114.1 NE29.98- 54.5 49.5 47.3---
2024-04-14 01:10 pmSSW 17.5 21.4 3.6-4.1 NE29.98- 54.5 49.5 47.3---
2024-04-14 01:00 pmSSW 17.5 21.4----29.98-0.07 54.5 49.5 46.9---
2024-04-14 12:50 pmSSW 17.5 21.4 3.0 114.0 E29.98- 54.5 49.5 46.9---
2024-04-14 12:40 pmSSW 17.5 21.4 3.0-4.0 E29.98- 54.3 49.5 46.9---
2024-04-14 12:30 pmSSW 17.5 19.4----29.98- 54.3 49.5 47.1---
2024-04-14 12:20 pmSSW 15.5 19.4 3.0 114.2 E29.99- 54.1 49.3 47.3---
2024-04-14 12:10 pmSSW 15.5 17.5----30.00- 54.1 49.3 47.3---
2024-04-14 12:00 pmSSW 15.5 19.4----30.01-0.05 54.5 49.3 47.1---
2024-04-14 11:50 amSSW 13.6 17.5 2.6 104.4ENE30.01- 54.0 49.3 47.1---

Detailed Wave Summary
for 44009 as of (12:10 pm EDT)
1610 GMT on 04/15/2024:

These wave data are displayed in rounded times.

     

Click on the graph icon in the table below to see a time series plot of the last five days of that observation.

5-day plot - Significant Wave Height Significant Wave Height (WVHT): 3.9 ft
5-day plot - Swell Height Swell Height (SwH): 3.6 ft
5-day plot - Swell Period Swell Period (SwP): 6.2 sec
5-day plot - Swell Direction Swell Direction (SwD):SSE
5-day plot - Wind Wave Height Wind Wave Height (WWH): 1.3 ft
5-day plot - Wind Wave Period Wind Wave Period (WWP): 3.7 sec
5-day plot - Wind Wave Direction Wind Wave Direction (WWD): S
5-day plot - Wave Steepness Wave Steepness (STEEPNESS): STEEP
5-day plot - Average Wave Period Average Wave Period (APD): 5.2 sec
Previous observations
TIME
(EDT)
5-day plot - Wave Height
WVHT
ft
5-day plot - Swell Height
SwH
ft
5-day plot - Swell Period
SwP
sec
5-day plot - Swell Direction
SwD
 
5-day plot - Wind Wave Height
WWH
ft
5-day plot - Wind Wave Period
WWP
sec
5-day plot - Wind Wave Direction
WWD
 
5-day plot - Wave Steepness
STEEPNESS
 
5-day plot - Average Wave Period
APD
sec
2024-04-15 11:40 am 3.6 3.6 6.2 S 1.3 3.7 S STEEP 5.3
2024-04-15 11:10 am 3.9 3.6 5.9 S 1.3 3.7 S STEEP 5.4
2024-04-15 10:40 am 4.3 3.9 6.7SSE 1.3 3.8 S STEEP 5.5
2024-04-15 10:10 am 3.9 3.9 6.7 S 1.3 4.0 S STEEP 5.5
2024-04-15 09:40 am 3.9 3.9 6.2SSE 1.3 3.7 S STEEP 5.5
2024-04-15 09:10 am 3.9 3.6 6.7 S 1.3 3.7 S STEEP 5.4
2024-04-15 08:40 am 3.9 3.6 6.7SSE 1.6 4.3 S STEEP 5.6
2024-04-15 08:10 am 3.9 3.9 6.7SSE 1.6 4.3 S STEEP 5.6
2024-04-15 07:40 am 4.3 3.6 6.2 S 2.3 4.5 S STEEP 5.4
2024-04-15 07:10 am 3.9 3.6 6.2 S 2.0 4.8 SSW STEEP 5.5
2024-04-15 06:40 am 4.3 3.9 6.7 S 1.3 4.0 S STEEP 5.6
2024-04-15 06:10 am 4.3 3.9 6.2 S 1.6 3.7 S STEEP 5.4
2024-04-15 05:40 am 4.3 3.9 6.7 S 1.3 3.6 S STEEP 5.4
2024-04-15 05:10 am 4.6 4.3 6.2 S 1.6 3.7 S STEEP 5.3
2024-04-15 04:40 am 4.9 4.3 6.2 S 2.3 4.3 S STEEP 5.1
2024-04-15 04:10 am 5.2 4.6 6.7 S 2.3 4.2 SSW STEEP 5.4
2024-04-15 03:40 am 5.2 4.3 6.2 S 3.0 4.3 S STEEP 5.1
2024-04-15 03:10 am 4.9 4.6 6.2 S 2.0 3.7 SSW STEEP 5.0
2024-04-15 02:40 am 5.2 4.9 6.2 S 2.3 3.8 SSW STEEP 5.0
2024-04-15 02:10 am 4.9 4.6 6.7 S 2.0 3.6 SSW STEEP 5.0
2024-04-15 01:40 am 5.6 4.9 6.2 S 2.6 4.2 SSWVERY_STEEP 5.1
2024-04-15 01:10 am 5.2 4.9 6.2SSW 2.3 3.8 SSW STEEP 4.9
2024-04-15 12:40 am 5.9 4.9 6.2SSW 3.6 5.0 SSWVERY_STEEP 4.9
2024-04-15 12:10 am 6.2 1.3 10.0ESE 5.9 6.2 SSWVERY_STEEP 4.8
2024-04-14 11:40 pm 5.9 1.6 12.1ESE 5.6 5.9 SSWVERY_STEEP 4.8
2024-04-14 11:10 pm 5.9 1.6 10.0ESE 5.9 5.9 SSWVERY_STEEP 4.9
2024-04-14 10:40 pm 5.9 2.0 12.9 E 5.6 6.2 SVERY_STEEP 5.0
2024-04-14 10:10 pm 5.9 1.6 10.8ESE 5.6 6.2 SVERY_STEEP 4.8
2024-04-14 09:40 pm 6.2 2.0 10.0ENE 5.9 5.9 SSWVERY_STEEP 4.9
2024-04-14 09:10 pm 6.2 2.0 10.8ENE 5.9 5.9 SSWVERY_STEEP 4.9
2024-04-14 08:40 pm 6.6 1.6 11.4 E 6.2 6.2 SVERY_STEEP 4.8
2024-04-14 08:10 pm 7.2 2.0 10.0 E 6.9 6.2 SSWVERY_STEEP 5.1
2024-04-14 07:40 pm 6.2 1.6 11.4 E 5.9 5.9 SSWVERY_STEEP 4.7
2024-04-14 07:10 pm 6.2 2.0 12.1 E 5.9 5.9 SSWVERY_STEEP 4.7
2024-04-14 06:40 pm 5.9 1.6 10.8ENE 5.6 5.6 SSWVERY_STEEP 4.6
2024-04-14 06:10 pm 5.9 2.0 10.8 E 5.6 5.3 SSWVERY_STEEP 4.6
2024-04-14 05:40 pm 5.9 1.6 11.4ESE 5.6 5.0 SSWVERY_STEEP 4.5
2024-04-14 05:10 pm 5.2 2.0 10.0 E 4.9 4.8 SSWVERY_STEEP 4.3
2024-04-14 04:40 pm 5.2 2.0 12.1 E 4.9 4.5 SSWVERY_STEEP 4.3
2024-04-14 04:10 pm 4.6 1.6 12.9 NE 4.3 4.8 SSWVERY_STEEP 4.2
2024-04-14 03:40 pm 4.3 2.0 12.9 E 3.9 4.0 SSWVERY_STEEP 4.2
2024-04-14 03:10 pm 4.3 2.3 12.1 E 3.6 3.8 SSWVERY_STEEP 4.1
2024-04-14 02:40 pm 3.9 2.3 10.0 E 3.3 3.7 SSWVERY_STEEP 4.0
2024-04-14 02:10 pm 3.9 2.3 11.4 E 3.3 3.8 SSW AVERAGE 4.2
2024-04-14 01:40 pm 3.6 2.3 10.0 E 3.0 3.7 SSW AVERAGE 4.1
2024-04-14 01:10 pm 3.6 2.3 11.4 NE 2.6 3.4 SSW AVERAGE 4.1
2024-04-14 12:40 pm 3.0 2.0 11.4 E 2.3 3.3 SSW AVERAGE 4.0
2024-04-14 12:10 pm 3.0 2.3 10.8 E 2.0 2.9 SSW SWELL 4.2

Plot of wave energy versus frequency (and period)